Regional Weather Roundup
Issued by NWS

Home | Current Version | Previous Version | Text Only | Print | Product List | Glossary On
Versions: 1 2 3 4 5 6 7 8 9 10 11 12 13 14 15 16 17 18 19 20 21 22 23 24 25 26 27 28 29 30 31 32 33 34 35 36 37 38 39 40 41 42 43 44 45 46 47 48 49 50
000
ASUS45 KSLC 280910
RWRUT

UTAH REGIONAL WEATHER ROUNDUP
NATIONAL WEATHER SERVICE SALT LAKE CITY UT
300 AM MDT FRI JUL 28 2017

UTZ001>011-023>025-281000-

NORTHERN UTAH

CITY           SKY/WX    TMP DP  RH WIND       PRES   REMARKS
BRIGHAM CITY   CLEAR     65  55  68 NW6       30.11R
HILL AFB       CLEAR     68  51  53 E15       30.12S
LOGAN          CLEAR     61  57  87 CALM      30.15R
OGDEN          CLEAR     67  56  67 SW3       30.09S
SALT LAKE CITY PTCLDY    69  61  75 SW7       30.08S
TOOELE VALLEY  CLEAR     64  54  68 S6        30.10S
WENDOVER       CLEAR     79  46  31 N12       30.10S
HEBER CITY     CLEAR     54  46  76 CALM      30.20S
WEST JORDAN    CLEAR     69  59  69 W6        30.12S

$$

UTZ011>015-024>027-281000-

CENTRAL/NORTHEAST UTAH

CITY           SKY/WX    TMP DP  RH WIND       PRES   REMARKS
PROVO AIRPORT  CLEAR     69  59  70 W6        30.11S
MOAB/CANYONLAN MOCLDY    78  61  55 S3        30.04R
DELTA          PTCLDY    72  48  43 N7        30.08S
PRICE          CLEAR     65  49  56 CALM      30.17S
RICHFIELD      PTCLDY    61  59  94 CALM      30.18R
ROOSEVELT      CLEAR     61  48  63 CALM      30.16R
VERNAL         CLEAR     63  50  62 CALM      30.15R

$$

UTZ013>016-019>022-027-281000-

SOUTHERN UTAH

CITY           SKY/WX    TMP DP  RH WIND       PRES   REMARKS
BRYCE CANYON   MOCLDY    56  53  90 W8        30.34R
CEDAR CITY     PTCLDY    65  54  67 VRB5      30.16S
MILFORD        MOCLDY    70  52  52 SW6       30.11S
ST GEORGE      SUNNY     81  62  52 CALM      29.96R
HANKSVILLE     MOCLDY    73  55  53 CALM      30.07S
KANAB          CLEAR     68  59  73 N3        30.16S
BLANDING       CLOUDY    68  56  65 S3        30.27R

$$

REGIONAL REPORTS     COLORADO/ARIZONA

CITY           SKY/WX    TMP DP  RH WIND       PRES   REMARKS
CRAIG, CO      CLEAR     55  50  83 CALM      30.23S
GRAND JUNCTION CLEAR     74  52  46 E5        30.07S
RIFLE, CO      CLEAR     66  52  60 SE5       30.16R
MONTROSE, CO   PTCLDY    67  52  58 E7        30.17R
CORTEZ, CO     CLOUDY    67  56  67 CALM      30.22R
COLORADO CITY    N/A     68  63  83 E3        30.15R
PAGE, AZ       MOCLDY    80  57  45 E3        30.08R
GRAND CANYON   MOCLDY    60  58  92 CALM      30.27S
KINGMAN, AZ    MOCLDY    77  53  43 SE7       29.99S
FLAGSTAFF, AZ  CLOUDY    55  54  96 CALM      30.31S

$$

REGIONAL REPORTS    NEVADA/IDAHO/WYOMING

CITY           SKY/WX    TMP DP  RH WIND       PRES   REMARKS
LAS VEGAS, NV  PTCLDY    91  42  18 S7        29.86R
ELY, NY        LGT RAIN  56  50  80 S5        30.23S
ELKO, NV       CLEAR     60  43  53 CALM      30.15S
POCATELLO, ID  CLEAR     52  48  86 CALM      30.16R
BURLEY, ID     CLEAR     61  53  75 NE5       30.10S
FORT BRIDGER,    N/A     59  42  53 W8        30.33S
EVANSTON, WY   CLEAR     57  44  62 S6        30.32S
ROCK SPRINGS,  CLEAR     59  42  53 W10       30.27S
KEMMERER, WY     N/A     52  41  66 N13       30.33S

$$



USA.gov is the U.S. government's official web portal to all federal, state and local government web resources and services.